Regional Weather Roundup
Issued by NWS Grand Forks, ND

Home | Current Version | Previous Version | Text Only | Print | Product List | Glossary Off
Versions: 1 2 3 4 5 6 7 8 9 10 11 12 13 14 15 16 17 18 19 20 21 22 23 24 25 26 27 28 29 30 31 32 33 34 35 36 37 38 39 40 41 42 43 44 45 46 47 48 49 50

000
ASUS43 KFGF 241631
RWRFGF
PRAIRIE TO PINES  WEATHER ROUNDUP
NATIONAL WEATHER SERVICE EASTERN NORTH DAKOTA/GRAND FORKS ND
1100 AM CDT THU MAY 24 2018

 **SATELLITE DATA USED TO AUGMENT SKY COVER AT AUTOMATED STATIONS**
 *****  WEATHER ACROSS EASTERN NORTH DAKOTA  *****

CITY           SKY/WX    TMP DP  RH WIND       PRES   REMARKS
GRAND FORKS    PTSUNNY   80  65  59 SW16G29   29.78F
GRAND FRKS AFB FAIR      82  59  44 S15       29.79S
GRAND FRKS NWS   N/A     83  63  50 S13       29.77S
DEVILS LAKE    FAIR      74  60  61 SW10      29.80F
FARGO          LGT RAIN  74  65  73 SW20G26   29.85S
WAHPETON ARPT  PTSUNNY   79  57  47 S9        29.88S
$$

 ***** WEATHER ACROSS CENTRAL AND WESTERN NORTH DAKOTA  *****

CITY           SKY/WX    TMP DP  RH WIND       PRES   REMARKS
BISMARCK       FAIR      75  57  53 SW12      29.79F
MINOT          FAIR      78  57  48 S7        29.73F
JAMESTOWN      FAIR      75  59  57 S16G24    29.82F
MINOT AFB      FAIR      78  58  49 W7        29.71F
GARRISON         N/A     76  54  46 SW14      29.75F
WILLISTON      CLOUDY    68  61  78 SW10      29.77S
DICKINSON      FAIR      72  53  51 W12G21    29.81S
HETTINGER      FAIR      73  52  47 W17       29.85S
$$

 *****  OTHER AIRPORT OBSERVATIONS IN OUR AREA  *****

CITY           SKY/WX    TMP DP  RH WIND       PRES   REMARKS
WALHALLA       FAIR      77  68  73 CALM      29.77F
GRAFTON AIRPOR FAIR      77  66  69 VRB7      29.80F
VALLEY CITY AR FAIR      77  59  53 SW22      29.85S
CANDO          FAIR      75  68  78 S9        29.80F
CAVALIER APRT    N/A     77  64  65 S8        29.77F
GWINNER          N/A     70  63  78 CALM      29.87F
SHEYENNE NWR     N/A     71  65  81 S7        29.95S
ROLLA          FAIR      72  68  88 S16G23    29.77F
 ***** THE ABOVE OBSERVATIONS ARE NON NWS ARE NOT QUALITY
       CONTROLLED AND MAY MIS-REPORT RAIN FOR SNOW...
$$

  *****  WEATHER ACROSS NORTHERN MINNESOTA  *****

CITY           SKY/WX    TMP DP  RH WIND       PRES   REMARKS
FLAG ISLAND    FAIR      68  63  83 S16       29.87F
WARROAD        FAIR      75  70  83 SE12      29.87F
ROSEAU         FAIR      75  68  78 SE13      29.85F
HALLOCK        FAIR      81  66  61 S16G23    29.79F
THF RVR FALLS  PTSUNNY   77  64  65 S16       29.85S
BAUDETTE       FAIR      73  65  75 SE21G28   29.90F
WASKISH          N/A     77  64  65 SE17G25   29.89F
CROOKSTON      FAIR      81  64  57 S23G29    29.83R
STEPHEN NDAWN    N/A     79  64  61 S12         N/A
GREENBUSH NDAW   N/A     73  66  78 SE10        N/A
$$
  *****  WEATHER ACROSS CENTRAL AND WEST MINNESOTA  *****

CITY           SKY/WX    TMP DP  RH WIND       PRES   REMARKS
FOSSTON        FAIR      81  61  50 S22       29.88R
BEMIDJI        FAIR      76  64  66 SE15      29.90F
PARK RAPIDS    FAIR      79  65  62 S17G28    29.91F
ELBOW LAKE     FAIR      80  65  61 SW14G20   29.91F
WADENA         FAIR      77  66  69 S13       29.92S
DETROIT LAKES  LGT RAIN  77  61  57 SW10      29.93R
MOORHEAD       FAIR      73  64  73 S9        29.87F
FERGUS FALLS   CLOUDY    72  63  73 S8        29.86F
MORRIS MN      FAIR      81  61  50 S21       29.90R
STAPLES        FAIR      77  64  65 S13G18    29.93S
$$
  *****  WEATHER ELSEWHERE ACROSS MINNESOTA  *****

CITY           SKY/WX    TMP DP  RH WIND       PRES   REMARKS
DULUTH         PTSUNNY   68  64  87 S5        30.05R
INTRNTL FALLS  CLOUDY    68  65  90 SE12      29.94F
ELY            LGT RAIN  64  63  94 CALM      30.06R
CLOQUET        PTSUNNY   70  63  78 E3        30.03F
WHEATON        FAIR      82  61  47 S12       29.89F
BRAINERD       FAIR      77  65  66 SE13G21   29.96F
HIBBING        LGT RAIN  64  63  96 SE3       30.00F
ALEXANDRIA     PTSUNNY   80  64  58 S15       29.94S
SAINT CLOUD    FAIR      83  65  54 S15G21    29.95F
MINNEAPOLIS    PTSUNNY   84  67  56 SW12      30.00F
$$

  *****  WEATHER ACROSS SOUTH DAKOTA  *****

CITY           SKY/WX    TMP DP  RH WIND       PRES   REMARKS
SIOUX FALLS    PTSUNNY   76  66  71 S14       29.91F
BROOKINGS      FAIR      76  64  66 S14       29.93F
WATERTOWN      FAIR      79  60  52 S16       29.92S
HURON          FAIR      77  61  57 S6        29.89F
SISSETON         N/A     82  61  48 SW17      29.87F
ABERDEEN       FAIR      81  57  43 SW14G20   29.88F
MITCHELL       FAIR      77  63  61 S8        29.89F
PIERRE         FAIR      76  62  62 SW15G24   29.87F
MOBRIDGE       FAIR      76  60  57 SW10      29.82F
RAPID CITY     FAIR      74  53  48 E3        29.91F
$$

  *****  SOME WEATHER IN NEARBY STATES *****

CITY           SKY/WX    TMP DP  RH WIND       PRES   REMARKS
GLASGOW MT     PTSUNNY   69  59  70 VRB5      29.78F
GREAT FALLS MT FAIR      71  48  43 SW22G31   29.87R
CHEYENNE WY    FAIR      71  39  31 W13       30.15F
SCOTTSBLUFF NE FAIR      72  52  49 W10       30.04F
OMAHA NE       PTSUNNY   78  67  68 S10       30.03F
DES MOINES IA  PTSUNNY   82  65  56 S13       30.07F
DAVENPORT IA   FAIR      82  60  47 S8        30.15F
CHICAGO IL     FAIR      80  55  42 S10       30.17F
EAU CLAIRE WI  FAIR      82  65  56 SW12      30.05F
LA CROSSE WI   FAIR      80  63  55 S12       30.09S
$$

  *****  SOME NATIONAL WEATHER *****

CITY           SKY/WX    TMP DP  RH WIND       PRES   REMARKS
LA GUARDIA NY  FAIR      78  35  21 N8        30.13S
RALEIGH NC     PTSUNNY   80  64  58 NE8       30.18F
ATLANTA GA     PTSUNNY   80  68  66 NE9       30.14R
NEW ORLEANS LA TSTM      81  78  91 NE5       30.08S
OKLAHOMA CITY  FAIR      82  66  58 S12       30.07F
ALBUQUERQUE NM FAIR      72  27  18 CALM      30.23S
SALT LAKE CITY MOSUNNY   68  43  40 SE8       30.10S
LOS ANGELES CA CLOUDY    61  55  81 CALM      30.09R
BOISE ID       FAIR      68  56  65 E6        30.03R
SEATTLE WA     CLOUDY    55  51  86 SW7       30.06R
$$

*** WEATHER ACROSS MANITOBA...SASKATCHEWAN AND ONTARIO ***
                ***ONTARIO***

CITY           SKY/WX    TMP DP  RH WIND       PRES   REMARKS
GERALDTON      PTSUNNY   81  52  36 SW8       29.99F
THUNDER BAY    CLOUDY    63  46  55 NE9       30.03F
SIOUX LOOKOUT  CLOUDY    75  61  60 S7        29.95F
TORONTO        MOSUNNY   73  50  43 S8        30.16F
BIG TROUT LK   SUNNY     81  46  30 W7        29.81F
PICKLE LAKE    MOSUNNY   81  50  34 W3        29.93F
DRYDEN         CLOUDY    73  61  64 S13       29.95F
KENORA         PTSUNNY   73  64  73 S16G25    29.90F
$$
                *** MANITOBA***

CITY           SKY/WX    TMP DP  RH WIND       PRES   REMARKS
BRANDON        PTSUNNY   66  63  88 E12       29.76R
DAUPHIN        MOSUNNY   73  61  64 SE3       29.74S
ISLAND LAKE    MOSUNNY   82  54  36 W5        29.83F
PILOT MOUND      N/A     66  59  77 E8          N/A
THE PAS        CLOUDY    68  57  68 N7        29.74F
THOMPSON       MOSUNNY   84  52  32 SW6       29.77F
WINNIPEG       CLOUDY    77  64  65 S16G28    29.80R
LYNN LAKE      SUNNY     84  46  26 W6        29.75F
CHURCHILL      SUNNY     41  36  81 NE13      29.81R
GILLAM         MOSUNNY   72  45  37 W10       29.73F
$$
                ***SASKATCHEWAN***

CITY           SKY/WX    TMP DP  RH WIND       PRES   REMARKS
ESTEVAN        MOSUNNY   75  55  50 SW7       29.73F
KINDERSLEY     MOSUNNY   70  54  56 VRB5      29.72F
LLOYDMINSTER   LGT RAIN  59  57  94 N5        29.75F FOG
PRINCE ALBERT  PTSUNNY   72  57  60 SE7       29.75
REGINA         PTSUNNY   66  59  77 SW6       29.74S
YORKTON        PTSUNNY   72  64  78 SE9       29.73S
N. BATTLEFORD  PTSUNNY   66  59  77 SE9       29.76S
LA RONGE       PTSUNNY   73  54  49 S5        29.74F
SASKATOON      CLOUDY    70  59  68 E6        29.75F
SWIFT CURRENT  CLOUDY    66  54  63 SW8       29.75S
$$
NOTE: THESE ARE AUTOMATED STATIONS WITH LIMITED QUALITY CONTROL
      "FAIR" INDICATES FEW OR NO CLOUDS BELOW 12,000 FEET WITH NO
      SIGNIFICANT WEATHER AND/OR OBSTRUCTIONS TO VISIBILITY.
      SKY/WX - SKY CONDITION AND SIGNIFICANT WEATHER.
      TMP - AIR TEMPERATURE.    DP   - DEWPOINT TEMPERATURE.
      RH  - RELATIVE HUMIDITY.  PRES - PRESSURE.
      HX  - HEAT INDEX.         WCI  - WIND CHILL INDEX.
$



USA.gov is the U.S. government's official web portal to all federal, state and local government web resources and services.